Dewpoint
32 32 32 32 31 31 30 30 29 30 29 29 29 29 29 28 27 27 28 29 29 29 30 31 32 33 33 33 33 33 34 34 34 34 35 36 36 35 34 34 34 33 31 31 31 32 33 34 34 34 33 32 32 32 31 33 34 34 34 34 36 37 36 35 37 38 40 39 38 37 38 37 36 34 34 34 35 36 36 35 35 35 34 34 35 37 36 37 37 36 37 37 37 38 39 38 36 36 35 33 32 31 32
32 32 32 32 31 31 31 30 30 30 30 29 29 29 28 27 26 27 28 28 29 29 29 30 30 31 33 33 33 33 33 33 33 34 34 34 33 33 33 34 33 32 31 32 32 33 34 34 34 33 33 33 33 32 32 33 34 34 34 34 35 37 36 37 38 38 38 38 37 37 37 37 36 34 34 34 34 34 35 36 36 35 34 35 36 36 38 38 39 40 38 38 39 40 38 38 38 38 34 33 32 30 32
31 32 31 31 31 31 31 31 30 29 29 29 29 29 28 27 26 27 27 28 28 29 29 29 29 30 31 32 32 32 32 32 32 33 33 32 32 32 31 32 32 32 33 32 32 32 33 33 32 31 31 32 32 33 33 34 34 34 34 34 34 35 36 37 37 37 37 35 34 34 34 34 34 33 34 34 34 34 34 35 36 36 35 35 37 38 38 38 39 42 40 42 43 40 37 37 38 37 34 33 32 32 34
31 31 31 31 31 31 31 31 31 32 30 29 29 30 29 28 27 27 27 27 28 28 29 28 27 28 29 30 31 31 32 32 32 32 32 32 32 32 31 31 31 31 31 31 31 31 30 30 30 30 30 31 32 33 33 33 33 34 33 33 33 33 34 34 34 34 34 34 34 34 34 34 34 33 33 33 33 33 34 34 35 36 36 38 39 41 39 38 38 39 39 40 41 38 35 35 36 37 35 34 34 34 35
30 30 30 30 30 31 31 31 31 31 30 29 29 29 29 28 27 27 27 27 26 26 27 26 26 26 28 28 29 30 31 32 32 31 31 31 32 32 31 31 30 30 30 29 30 32 32 32 32 32 31 31 32 33 34 34 34 34 33 33 33 33 33 33 33 33 33 33 34 35 35 34 34 34 34 33 33 34 34 34 35 37 36 37 37 37 37 36 37 37 39 39 38 37 35 35 36 37 37 36 36 36 35
30 31 31 31 31 31 30 30 30 30 30 29 29 29 29 28 27 26 26 26 25 25 26 25 25 25 26 27 27 28 30 32 32 29 29 30 30 29 29 29 29 28 29 29 29 29 31 33 34 33 32 31 31 32 33 33 34 33 33 34 34 34 34 34 33 33 34 34 34 35 35 34 33 33 34 34 34 34 34 34 34 35 35 35 35 35 36 36 36 36 36 37 37 36 38 38 37 36 37 36 35 35 34
30 31 31 31 31 30 30 30 30 30 29 28 28 29 29 28 26 25 25 25 25 25 25 25 25 24 25 25 26 27 29 32 33 31 29 29 30 30 29 29 28 27 28 28 28 27 29 30 31 31 31 31 32 33 33 33 33 34 33 33 34 34 36 35 33 33 35 35 35 34 34 33 32 31 32 33 34 34 34 34 35 36 36 35 35 35 36 35 35 35 34 34 35 35 38 40 38 35 34 33 33 33 33
29 30 30 31 30 30 30 30 30 29 28 27 28 27 27 26 25 25 25 25 25 25 25 25 25 24 24 24 25 25 29 31 31 28 28 29 29 29 27 28 28 27 27 28 28 29 29 30 30 31 30 30 31 32 33 34 34 35 33 32 33 35 38 38 36 34 35 36 35 33 31 31 30 31 32 32 33 34 34 34 35 35 36 35 35 35 35 35 34 34 34 34 35 35 37 37 36 34 33 32 31 31 32
28 29 29 29 30 31 31 31 31 30 29 28 28 27 27 26 25 25 25 25 25 25 25 25 25 24 24 24 24 25 27 28 28 25 27 28 28 25 25 26 26 26 26 27 27 29 28 28 28 28 27 29 30 32 33 34 34 34 34 33 33 35 39 40 39 37 37 38 37 34 32 30 30 31 32 32 33 34 34 34 34 35 35 35 34 34 34 35 36 37 35 35 35 36 35 35 35 34 33 32 31 31 32
27 29 29 29 29 31 31 31 31 30 29 28 29 28 27 26 25 25 25 25 25 25 25 25 25 25 24 24 24 25 25 26 26 25 26 26 26 25 25 25 25 25 25 26 26 26 26 26 27 27 27 28 29 31 31 31 32 32 32 32 33 34 39 40 39 38 39 40 40 37 34 32 31 32 33 34 34 34 35 35 35 36 35 35 34 34 34 35 36 37 35 35 35 35 35 35 35 35 34 34 33 32 32
27 27 28 28 29 29 30 31 31 31 30 29 29 29 28 27 26 25 25 25 25 25 25 25 25 25 25 24 24 24 25 25 25 25 27 26 25 25 24 25 25 25 25 25 25 25 26 27 27 27 28 28 28 28 29 29 30 31 30 30 31 33 38 39 38 37 39 41 41 40 38 35 34 32 34 35 35 35 36 36 36 36 36 36 35 35 35 34 34 35 35 35 36 37 36 36 35 35 36 36 35 34 33
27 27 27 28 28 28 29 30 31 31 31 31 31 30 29 28 27 26 26 26 26 26 25 25 25 25 25 25 25 24 25 25 25 26 27 25 24 24 25 25 26 26 26 26 26 26 26 26 27 28 29 29 28 26 27 29 29 29 28 28 29 30 35 36 36 35 38 40 41 41 39 38 35 34 33 34 34 35 36 36 37 37 38 37 36 36 35 35 35 35 38 39 38 37 36 36 36 36 36 36 35 34 34
27 27 27 27 27 27 28 29 30 31 32 32 31 30 29 28 27 25 25 26 27 27 26 25 25 25 28 28 26 24 24 25 25 25 25 25 24 24 25 25 26 27 27 27 26 26 25 25 26 26 26 27 27 26 26 26 27 26 27 27 28 29 31 34 35 34 36 39 42 42 40 38 36 34 32 33 34 34 35 36 36 38 38 38 37 36 36 36 35 35 39 40 39 37 36 36 36 36 36 35 34 34 34
27 27 27 27 27 27 27 28 29 31 32 33 32 30 29 28 26 25 25 25 26 27 27 26 25 25 27 28 27 25 25 26 25 25 27 26 25 25 25 25 25 25 28 27 26 25 25 24 24 24 26 28 28 26 27 26 25 25 26 27 28 29 29 31 34 35 35 37 40 43 42 41 38 36 34 33 34 34 35 35 36 37 38 38 37 37 36 36 36 36 36 37 38 38 36 36 36 35 35 35 35 34 34
27 27 27 27 27 27 27 28 29 30 32 32 31 30 28 27 26 25 25 24 25 25 27 27 26 26 25 26 27 25 26 27 27 25 26 27 27 26 25 25 25 25 26 26 26 26 26 25 25 25 29 30 30 27 26 25 24 25 26 27 28 29 29 30 32 34 37 38 38 40 41 41 40 37 34 33 32 32 33 33 34 34 36 36 36 36 36 36 36 35 35 35 36 36 35 35 34 34 34 34 35 35 34
26 27 27 27 27 27 27 28 29 30 30 30 29 29 29 28 27 26 25 24 24 25 27 27 26 25 25 25 25 25 25 27 28 25 26 28 29 28 27 26 26 26 25 25 26 28 29 27 25 25 29 30 29 26 25 25 24 24 25 27 28 29 29 30 31 31 36 37 37 37 38 38 38 36 34 31 30 29 29 30 30 32 34 34 33 34 34 34 34 34 34 34 34 34 34 34 34 34 34 34 35 35 34
25 26 27 27 27 27 28 28 29 29 30 29 29 29 29 29 28 27 26 25 24 24 26 26 26 24 24 25 25 25 25 26 26 25 26 26 27 28 27 27 26 27 28 27 26 26 26 26 25 25 26 27 27 26 26 25 25 24 25 26 28 29 29 29 29 29 31 33 34 33 34 35 35 34 32 30 29 28 28 29 29 32 32 31 31 31 32 33 33 33 34 34 34 34 33 33 33 33 33 33 33 34 33
25 26 27 27 28 28 28 28 28 29 29 29 29 28 29 29 28 27 26 25 25 25 26 26 25 24 24 24 25 25 25 25 26 26 26 26 26 27 27 26 26 28 29 29 27 26 25 25 25 25 25 25 25 26 26 26 26 25 26 27 27 28 28 28 28 28 29 29 29 29 30 32 32 30 29 29 28 28 28 28 29 31 30 29 29 30 30 31 31 32 32 32 32 33 32 32 32 32 32 31 31 31 31
25 26 27 28 28 29 29 28 27 28 29 29 29 29 29 28 27 27 27 26 25 26 27 26 25 25 24 24 25 25 25 25 26 27 26 26 26 27 27 27 26 28 29 29 29 27 25 25 24 24 23 23 24 24 25 26 26 26 26 26 27 27 27 27 27 28 28 28 28 29 29 29 28 28 28 28 28 27 27 27 27 29 28 28 28 28 28 28 29 29 29 30 30 31 31 30 30 30 30 30 29 29 29
25 27 27 28 29 29 29 29 27 27 28 29 29 29 29 28 28 27 27 26 26 26 27 27 26 25 24 24 24 25 25 25 26 26 27 27 27 27 28 28 28 28 29 29 29 29 27 26 25 24 23 23 22 23 24 25 25 25 26 26 26 26 26 27 27 27 27 27 27 28 28 27 27 28 28 27 27 27 27 27 27 27 26 26 26 26 26 26 27 27 28 29 29 29 29 29 29 29 29 29 29 29 28
25 27 27 27 28 29 29 28 28 27 29 29 29 29 29 29 29 28 27 27 27 27 27 27 26 24 23 23 24 24 25 25 25 25 26 27 27 27 27 28 29 29 29 29 30 31 29 28 26 25 24 24 24 24 25 25 25 25 25 25 25 25 26 26 26 26 26 26 26 26 27 27 27 28 28 27 27 28 28 27 27 26 25 25 25 25 26 27 28 28 29 29 29 29 28 28 28 28 27 28 28 28 28
25 26 26 27 28 28 28 28 29 28 29 29 29 29 29 29 29 29 28 28 28 28 28 27 25 23 23 23 23 23 24 24 24 24 25 26 26 26 26 27 28 29 29 29 29 30 30 29 28 26 25 25 25 26 26 25 25 25 25 25 25 25 25 25 25 25 26 26 26 26 26 27 28 28 28 27 27 27 27 26 26 25 26 26 26 26 28 29 29 29 29 29 29 29 29 29 28 27 27 27 27 27 27
25 25 27 27 28 29 29 29 29 29 29 29 29 30 30 30 30 29 28 28 28 29 29 28 26 24 23 23 23 22 23 23 24 24 25 25 26 26 26 27 28 29 29 29 29 30 31 30 29 28 27 26 26 27 27 26 26 25 25 25 25 25 25 25 25 25 26 26 26 27 27 28 29 29 28 27 27 27 26 26 27 27 27 28 28 28 29 30 30 30 30 30 30 30 30 29 29 29 28 27 27 26 26
26 26 27 28 29 29 29 29 29 29 29 30 31 31 31 31 31 30 29 29 29 29 29 27 26 25 24 23 23 22 22 23 24 24 24 25 25 26 27 28 29 30 30 30 30 32 31 31 30 29 28 27 26 26 27 26 26 26 26 25 26 26 27 27 26 27 27 27 27 28 29 29 29 29 29 29 29 28 27 27 27 28 28 29 30 30 31 31 31 30 30 30 31 31 31 30 30 31 29 29 28 27 27
26 27 28 28 29 29 29 29 29 29 30 30 31 31 32 32 31 31 31 30 30 30 30 28 26 25 24 23 23 22 22 23 24 24 24 25 25 26 27 29 30 31 31 31 32 34 33 33 31 30 29 28 27 26 26 26 26 27 26 26 27 27 28 28 28 28 28 28 29 30 30 30 30 30 30 30 29 28 27 27 27 27 28 29 30 30 30 30 30 29 30 30 31 31 31 31 31 31 31 29 28 28 27
27 28 28 28 28 28 28 28 29 29 29 30 30 31 31 31 30 30 30 31 31 31 31 29 28 26 25 24 23 22 22 23 24 25 25 25 25 26 28 29 30 31 32 33 34 34 34 33 32 30 30 29 29 28 27 27 27 28 28 28 28 29 29 29 29 29 29 29 30 30 30 30 30 30 30 29 29 27 28 29 29 29 30 30 30 29 30 30 30 30 30 30 30 31 31 31 31 32 32 31 29 29 28
28 28 28 28 28 28 28 28 28 29 29 31 32 33 32 32 31 30 30 31 31 31 31 30 29 27 25 25 24 23 23 23 24 25 25 26 27 28 30 31 32 33 33 34 35 35 34 33 32 31 30 29 29 29 29 29 29 29 29 29 29 29 29 29 30 30 30 30 30 29 29 30 30 30 29 29 29 28 28 28 29 29 30 30 31 32 31 30 30 30 30 30 30 30 30 30 30 31 31 30 29 28 28
28 27 27 28 28 28 28 28 28 28 28 30 32 34 33 32 31 31 30 30 30 30 31 30 29 27 26 26 25 24 23 24 25 25 26 27 29 31 35 37 37 36 36 37 37 34 33 32 32 31 30 29 29 30 30 30 29 29 29 29 29 30 30 30 30 29 31 31 30 30 31 31 31 31 30 29 28 27 27 26 26 27 27 28 29 30 30 30 30 30 30 30 29 29 29 29 29 29 29 29 28 27 27
28 27 28 28 28 28 28 28 28 28 28 29 29 30 31 30 29 30 30 30 30 30 30 30 29 28 27 26 25 25 25 25 25 25 26 28 30 36 41 43 42 41 39 38 36 33 31 31 31 31 31 30 30 31 31 31 31 30 30 30 30 30 30 30 29 29 31 32 33 33 32 32 31 29 29 28 27 26 26 26 26 26 27 28 29 29 29 29 29 30 30 29 29 29 29 29 29 29 29 28 28 28 28
27 27 28 28 28 28 28 28 28 28 29 29 28 28 29 29 28 29 30 30 30 30 30 29 29 28 27 27 26 25 26 26 26 27 27 28 32 40 41 41 42 42 40 38 36 34 32 32 33 32 31 31 31 32 31 30 29 30 30 30 30 30 29 28 28 29 31 33 34 33 31 30 29 28 27 27 27 27 27 28 28 28 28 29 29 30 31 31 31 31 30 29 29 30 28 28 27 28 28 28 29 29 29
28 28 28 28 28 28 28 28 28 29 29 29 29 29 29 29 29 29 30 30 29 29 29 29 28 27 27 27 26 25 25 25 26 27 27 30 34 38 38 39 40 40 39 38 37 36 35 34 34 34 32 31 31 32 30 29 29 29 29 29 28 28 27 28 28 29 32 32 32 30 29 29 28 28 28 29 29 30 30 29 29 29 29 30 31 31 31 32 32 31 30 29 30 29 30 29 29 29 29 29 29 29 29
28 28 28 28 28 28 28 28 29 29 29 29 28 29 29 30 30 30 30 30 30 30 30 29 28 27 27 26 26 25 25 25 25 25 28 32 34 34 34 34 35 36 35 34 35 35 35 35 34 33 33 32 32 31 30 29 29 29 29 29 28 27 27 28 28 29 29 29 29 29 28 28 28 28 29 29 29 29 29 29 29 29 29 29 29 29 29 30 31 31 29 29 29 29 29 29 30 30 30 30 30 29 29
28 28 28 28 28 28 28 28 28 28 28 28 29 29 29 29 30 30 30 30 29 30 29 28 27 26 26 26 26 25 25 24 25 25 29 31 32 31 31 32 33 32 32 31 31 30 32 32 31 30 30 30 29 29 29 29 29 29 29 28 27 27 27 27 28 28 29 29 28 28 29 29 28 28 28 29 29 29 29 29 29 29 29 29 29 29 29 29 29 29 29 28 29 29 29 29 30 31 31 31 31 31 30
28 28 28 28 28 28 28 28 28 29 29 29 29 29 29 30 30 30 30 29 29 29 28 27 26 26 25 25 25 25 25 24 24 26 28 29 29 29 29 31 32 30 30 29 29 29 29 30 30 29 29 29 29 29 29 29 29 29 29 28 28 27 27 27 28 28 29 28 28 28 29 30 30 30 29 29 29 29 29 29 29 29 29 29 29 29 29 28 28 28 28 28 28 27 27 28 30 31 32 32 32 31 31
28 28 28 27 27 27 28 29 29 30 30 30 29 29 30 30 30 30 29 29 29 29 28 27 26 25 25 24 24 24 25 24 24 26 26 27 28 28 28 29 29 28 28 28 28 28 29 29 29 29 29 29 28 28 28 28 28 27 27 28 27 27 29 29 28 29 29 29 29 30 31 31 30 30 29 29 29 28 28 27 27 26 26 26 26 26 26 26 26 25 25 26 27 26 27 29 30 31 31 32 32 30 31
27 28 27 27 27 27 28 29 30 31 30 30 29 29 29 30 30 29 29 29 28 27 26 26 25 25 24 23 23 24 24 23 23 25 24 25 25 26 26 27 27 26 26 26 25 26 27 27 27 28 27 27 27 27 26 26 26 26 26 26 26 27 28 28 27 29 29 29 29 29 29 29 29 28 27 26 25 25 24 24 23 23 23 22 22 23 24 25 25 25 25 26 27 26 27 28 29 30 30 31 31 30 30
27 27 27 27 27 27 28 29 30 31 30 29 29 28 28 28 28 28 28 27 27 26 25 25 25 25 24 23 23 23 23 23 23 23 23 23 24 25 25 25 25 25 25 25 25 26 26 27 26 27 26 26 25 25 25 25 25 25 25 25 25 26 25 25 25 26 26 26 26 26 26 26 25 25 24 23 23 22 22 21 21 21 21 20 20 21 24 24 24 24 25 25 25 25 27 28 29 29 29 29 30 30 30
27 27 27 27 28 29 30 30 30 31 30 29 29 28 28 27 27 27 27 27 26 25 25 25 25 25 24 24 23 22 23 23 23 23 23 23 24 24 24 24 25 25 25 25 26 27 27 27 27 26 25 25 25 25 24 24 24 24 24 24 24 24 23 23 23 24 25 25 24 24 24 24 24 23 23 22 22 22 21 21 20 20 20 20 21 24 26 25 24 25 24 24 23 25 26 28 29 28 29 29 29 29 29
27 27 27 28 29 30 31 31 31 31 30 29 29 28 28 28 28 28 27 26 26 25 25 25 25 25 25 24 24 23 23 23 24 24 23 23 23 23 23 24 24 25 26 26 27 28 28 27 27 26 25 25 25 24 24 24 24 23 23 23 23 23 23 23 23 24 24 24 25 24 24 24 23 23 22 22 22 22 22 22 21 21 21 22 23 25 27 26 25 25 24 24 24 25 26 27 28 29 29 29 29 29 29
28 28 29 29 30 31 32 31 30 30 30 30 29 29 29 28 27 27 26 26 26 25 25 25 25 25 25 25 24 23 23 24 24 25 24 23 23 23 24 24 25 26 27 27 28 28 28 27 26 25 25 25 24 24 24 24 23 23 22 23 24 25 24 25 25 25 25 25 25 26 25 25 24 24 23 23 22 22 22 23 23 22 22 22 23 25 27 27 26 25 25 25 25 25 25 26 27 28 29 29 29 29 29
28 29 29 30 31 31 30 29 29 29 29 29 29 28 28 28 27 26 26 26 26 26 25 25 25 25 25 25 24 24 24 24 25 25 24 24 23 23 24 25 26 27 28 28 28 28 27 26 26 25 25 24 24 24 24 23 23 23 23 25 26 28 28 27 27 27 26 26 26 27 27 26 25 25 24 24 23 23 23 23 23 22 22 22 22 23 25 27 27 27 27 27 27 26 26 26 26 27 29 29 29 29 29
29 29 30 30 30 30 29 28 28 28 28 28 28 27 27 27 26 26 26 26 26 26 25 26 26 25 25 25 25 24 24 25 25 24 24 23 23 23 25 26 27 28 28 28 27 27 26 26 25 25 25 24 24 24 24 24 23 24 25 25 27 28 29 29 29 29 28 28 28 28 29 28 27 26 25 25 24 23 23 23 22 22 22 22 22 22 24 24 25 26 28 29 29 28 28 27 27 28 29 29 29 29 30
29 29 29 30 30 29 29 28 28 27 27 27 27 27 27 26 25 25 25 25 25 25 26 26 26 25 25 25 25 25 24 24 24 24 23 23 24 25 26 27 28 28 28 27 27 26 25 25 25 25 24 24 24 24 24 24 25 25 26 26 27 28 30 31 31 31 31 31 31 31 31 30 29 29 27 26 25 25 24 23 23 23 23 23 23 23 23 23 24 24 26 28 29 29 29 29 29 29 29 29 30 30 30
28 29 29 30 30 29 29 28 27 27 27 28 27 27 26 25 25 25 25 25 25 25 26 26 26 25 25 25 25 25 24 24 23 23 23 24 25 26 27 27 28 28 27 26 25 25 25 24 24 24 24 24 24 24 24 25 25 26 27 27 28 29 30 31 32 32 32 32 32 32 32 31 30 29 29 28 27 26 25 25 24 24 23 23 23 23 24 24 25 26 27 28 29 29 29 29 30 30 29 30 30 30 30
29 29 30 30 30 29 28 28 27 28 28 28 28 27 26 25 24 24 24 24 25 25 26 26 26 26 25 25 25 25 24 23 23 23 24 25 26 27 27 27 27 27 26 25 25 24 24 24 24 24 24 24 24 25 25 25 26 27 28 28 28 29 30 31 32 32 32 33 32 32 32 32 31 30 30 29 29 28 27 25 25 24 24 24 24 25 25 25 26 26 28 28 29 29 29 29 29 29 30 30 30 30 29
30 30 30 30 29 29 28 28 28 29 29 29 28 27 25 24 23 23 23 24 24 25 25 26 26 26 25 25 25 25 24 23 23 24 25 25 26 28 27 27 26 25 25 24 24 24 24 24 24 24 25 25 25 25 27 28 29 29 29 29 29 29 31 32 33 32 32 32 32 32 31 31 31 31 31 31 30 29 28 26 26 25 25 25 25 25 26 27 27 26 28 28 29 29 29 29 29 29 29 29 29 29 28
30 30 30 30 29 28 28 29 30 30 30 29 29 27 25 24 23 22 22 23 23 25 25 26 27 28 26 25 25 24 23 23 23 24 25 26 27 27 27 26 25 25 24 24 24 24 24 24 24 25 25 25 26 27 29 30 31 32 31 31 32 32 33 32 32 31 31 31 31 31 31 31 32 32 32 32 31 30 29 28 28 27 26 26 25 26 26 27 28 28 29 29 29 29 29 29 29 29 28 28 27 27 27
31 31 30 29 29 29 29 31 32 32 32 30 29 27 25 24 23 22 22 22 23 25 25 27 29 30 27 25 24 23 23 24 25 25 27 27 27 27 27 26 25 25 25 24 24 24 24 24 25 25 25 25 26 28 29 31 32 33 33 33 33 33 33 32 31 31 31 31 32 32 32 32 33 33 32 32 31 31 30 29 29 28 28 27 27 27 27 28 28 29 29 29 29 28 28 28 29 28 27 26 26 25 25
31 31 30 29 29 30 32 33 34 34 33 31 29 27 25 24 23 22 22 22 23 24 25 28 31 31 27 25 24 24 25 26 27 28 28 28 28 27 27 26 26 26 25 25 25 25 25 25 25 25 25 25 26 27 29 30 32 33 33 33 33 33 33 33 33 33 33 33 33 33 33 33 33 32 32 31 31 31 30 29 29 28 28 27 28 29 29 29 29 29 29 28 28 28 28 28 28 27 26 25 25 25 25
32 31 31 31 32 33 34 35 35 34 34 33 31 27 25 24 23 23 23 23 23 23 25 27 29 28 25 25 25 26 27 28 29 29 29 29 28 27 27 27 27 27 26 26 25 25 25 25 25 25 25 26 26 27 28 29 30 32 33 33 34 34 34 34 34 34 34 34 34 34 33 33 33 32 31 31 31 30 30 29 29 28 27 28 28 28 29 29 29 29 28 27 27 27 27 27 26 26 25 25 25 25 25
32 32 33 34 35 36 36 36 36 35 35 34 32 29 26 25 23 23 23 24 24 24 25 26 27 25 25 25 27 28 29 29 30 30 29 29 28 28 28 28 27 27 27 26 26 25 25 25 25 26 26 27 27 27 27 28 28 29 31 33 34 34 35 35 35 35 36 36 35 34 34 33 33 32 31 30 30 29 29 29 28 27 28 28 28 28 29 29 30 30 30 29 28 27 27 26 25 25 25 25 25 25 25
32 33 35 36 37 38 38 37 37 35 34 32 29 28 26 25 24 23 23 23 24 24 25 25 25 25 26 27 29 30 30 30 30 30 29 29 29 29 29 28 28 28 27 27 26 26 26 26 26 26 27 27 28 28 27 27 27 27 29 31 33 34 35 37 37 36 38 38 36 35 34 33 32 30 29 29 29 28 28 27 26 25 26 28 28 28 29 29 30 30 30 30 29 28 27 26 25 25 25 26 26 25 25
34 36 37 38 38 38 38 38 36 34 32 29 28 28 26 25 24 23 23 22 22 22 23 25 25 26 28 29 30 30 31 31 30 29 29 29 29 29 29 29 29 29 29 28 27 27 26 26 27 27 27 28 27 27 27 27 27 28 29 30 32 33 34 35 36 35 36 36 34 32 32 31 30 29 27 27 27 27 27 26 25 24 25 27 28 28 29 29 30 30 30 30 29 28 27 27 26 26 25 25 25 25 25
37 38 38 38 38 38 38 37 35 34 31 29 28 26 25 24 23 23 22 21 21 21 23 25 26 28 29 30 30 30 32 33 33 32 31 30 29 29 29 29 29 29 29 29 29 29 28 29 29 28 28 28 28 28 28 29 29 30 30 30 31 31 32 32 32 32 33 32 30 29 29 29 29 28 27 26 26 26 26 25 23 22 22 23 25 27 29 29 30 30 29 29 29 28 27 26 26 25 25 25 25 25 25
38 39 39 39 39 38 37 36 35 33 30 28 26 25 25 24 23 21 21 20 21 23 27 30 32 34 34 34 34 32 34 34 34 33 33 31 29 29 29 29 29 29 29 30 30 30 30 30 30 29 30 30 30 30 30 30 30 31 30 30 30 30 30 29 29 29 29 29 29 28 28 28 26 24 24 24 25 27 25 24 23 21 22 24 25 28 29 30 30 29 29 29 28 28 27 26 26 25 25 25 25 25 25
39 39 40 40 39 38 37 35 34 32 30 28 26 25 25 25 24 22 22 24 27 30 34 36 37 37 37 36 35 33 34 34 34 34 33 32 31 32 31 30 29 29 29 29 30 31 31 31 31 31 32 32 32 32 30 30 29 29 29 29 29 29 29 28 28 28 29 29 28 25 24 23 22 22 21 22 23 24 23 22 22 21 22 25 26 29 29 29 29 29 28 28 28 28 27 27 26 26 25 25 25 25 25
40 40 40 40 39 38 36 34 33 31 29 28 26 24 25 27 29 29 30 33 35 37 38 38 38 38 37 37 36 34 33 32 31 31 31 32 33 33 32 31 29 28 28 28 29 30 32 32 32 32 33 33 33 32 31 30 30 29 29 29 29 29 29 28 27 26 27 26 24 21 20 19 19 20 21 22 22 22 22 22 23 23 25 26 27 29 29 29 29 28 28 28 27 27 27 27 27 26 26 26 26 26 25
41 41 41 39 38 36 35 34 32 31 29 27 26 26 29 32 34 36 36 36 37 37 37 37 37 37 37 37 36 34 33 31 30 29 30 31 33 33 32 31 30 29 29 29 29 30 31 32 32 33 33 33 33 32 32 31 31 30 29 29 29 29 28 28 26 25 25 23 21 19 18 18 19 21 21 21 21 21 22 22 23 24 25 27 28 29 29 28 28 28 27 27 27 28 28 28 27 27 27 27 26 26 26
42 42 40 38 37 35 34 33 31 30 29 28 28 31 32 34 35 37 37 37 36 36 36 37 37 37 36 35 34 33 31 29 28 28 28 29 30 32 33 34 33 32 32 31 30 30 31 32 33 33 33 33 32 32 32 32 32 31 30 30 29 28 27 26 25 23 22 20 20 19 18 19 21 24 23 23 23 23 22 23 24 25 28 29 29 28 28 28 28 27 27 27 28 28 28 28 27 27 27 27 27 27 27